Reflectivity
-20 -20 -20 3 6 19 25 15 5 20 -20 43 31 22 21 20 12 6 5 11 3 10 -20 -6 5 15 6 -20 -20 -20 -20 -20 -20 -20 -20 -20 -20 -20 -20 -20 -20 -20 -20
-20 -20 -20 -7 19 16 22 7 -1 -20 -10 -10 24 35 29 14 16 -8 -4 -15 -20 4 -15 -20 -20 -3 10 -20 -20 -20 -20 -20 -20 -20 -20 -20 -20 -20 -20 -20 -20 -20 -20
-20 -20 -20 -20 12 21 16 7 12 14 -20 -13 26 50 35 23 17 -11 -20 -20 -20 0 -20 -4 -15 -18 -20 -20 -20 -20 -20 -20 -20 -20 -20 -20 -20 -20 -20 -20 -20 -20 -20
-20 -20 -20 -20 6 15 19 9 7 22 7 10 43 39 36 18 8 -20 -20 -20 -20 -5 -9 0 -2 -20 -20 -20 -20 -20 -20 -20 -20 -20 -20 -20 -20 -20 -20 -20 -20 -20 -20
-20 -20 -20 -20 -2 9 8 15 10 8 30 4 40 39 27 12 22 -12 -20 -19 -20 -13 -10 -8 -7 -20 -20 -20 -20 -20 -20 -20 -20 -20 -20 -20 -20 -20 -20 -20 -20 -20 -20
-20 -20 -20 -20 -18 8 2 16 15 9 23 17 38 33 38 21 14 28 -2 -20 -20 -6 -20 -20 -20 -8 8 -20 -20 -20 -20 -20 -20 -20 -20 -20 -20 -20 -20 -20 -20 -20 -20
-20 -20 -20 -20 -20 -1 1 23 20 13 29 10 34 26 26 35 10 13 21 -20 13 -20 -20 -20 14 14 -3 4 -20 -20 -20 -20 -20 -20 -20 -20 -20 -20 -20 -20 -20 -20 -20
-20 -20 -20 -20 -20 -8 12 11 18 12 -5 -1 35 20 37 33 11 2 13 3 2 -17 -20 -20 -8 -12 9 8 -15 -20 -20 -20 -20 -20 -20 -20 -20 -20 -20 -20 -20 -20 -20
-20 -20 -20 -20 -20 -12 -5 -4 -2 -12 1 10 10 10 34 39 9 -18 18 20 -20 -20 -20 -20 -20 -13 7 -12 0 -20 -20 -20 -20 -20 -20 -20 -20 -20 -20 -20 -20 -20 -20
-20 -20 -20 -20 -20 -20 -18 -14 -2 -3 1 -7 -18 -3 23 33 22 2 9 29 19 -7 -20 -20 -20 -13 8 -0 8 -20 -20 -20 -20 -20 -20 -20 -20 -20 -20 -20 -20 -20 -20
-14 -20 -20 -20 -16 -16 -20 -20 -2 -20 -20 -13 -5 4 23 36 28 11 8 2 22 11 -20 -20 -20 -20 -10 0 5 -20 -20 -20 -20 -20 -20 -20 -20 -20 -20 -20 -20 -20 -20
-9 0 -7 -13 -13 -20 -20 -20 -20 -20 -16 -20 -20 -15 15 29 28 26 12 30 44 35 9 -20 -20 -20 2 16 -15 -20 -20 -20 -20 -20 -20 -20 -20 -20 -20 -20 -20 -20 -20
-17 -17 -8 4 -20 -14 -18 -20 -20 -19 4 -20 -20 20 28 33 37 31 37 4 9 21 15 -20 -20 -20 -20 -19 -16 -6 -20 -20 -20 -20 -20 -20 -20 -20 -20 -20 -20 -20 -20
15 11 6 9 -10 -18 -16 -20 -18 -20 -6 -20 10 22 21 31 34 25 25 12 31 36 41 20 -2 -19 -7 -20 -20 -9 -20 -20 -20 -20 -20 -20 -20 -20 -20 -20 -20 -20 -20
20 16 18 6 -20 -16 -13 -9 -20 -19 -13 5 -12 -1 12 17 31 33 28 25 13 26 37 28 12 -14 -15 10 -20 -19 -20 -20 -20 -20 -20 -20 -20 -20 -20 -20 -20 -20 -20
16 8 8 -4 -20 -20 -6 -7 -20 7 -17 -19 -5 -18 6 -7 30 30 32 34 36 36 22 33 40 43 -4 22 -11 -14 -20 -20 -20 -20 -20 -20 -20 -18 -20 -20 -20 -20 -20
20 21 23 15 10 -1 -12 -20 11 -2 13 14 23 -20 6 32 31 31 33 33 28 21 33 35 40 36 40 15 -1 -5 -1 -20 -20 -20 -20 -20 -20 -16 -20 -20 -20 -20 12
19 19 25 28 25 20 -8 -20 -1 8 -11 19 21 10 24 8 17 30 27 32 28 29 29 32 29 38 33 36 33 -10 -15 -20 -8 -19 -20 -20 1 -17 -20 -20 -20 -3 -11
18 16 19 31 23 24 24 22 22 16 -20 -1 6 -14 -20 25 8 22 25 23 20 20 18 28 31 38 37 37 38 19 -13 12 4 -20 -20 -20 -20 -20 -20 -20 -5 10 -2
22 26 20 20 25 25 9 -2 -18 -18 -6 -19 -20 -13 -18 4 25 28 33 24 28 30 31 34 34 35 34 37 34 33 19 10 13 4 -18 -19 -19 -6 2 23 18 13 -4
29 27 10 17 15 25 2 10 -8 7 5 11 -17 -15 11 7 17 9 22 21 26 32 30 30 29 22 23 30 31 29 29 21 20 13 9 2 19 19 12 22 13 13 -7
31 29 32 30 24 31 18 1 -11 -0 -20 -20 -20 -4 13 17 6 25 21 23 17 11 16 20 28 25 24 30 31 30 23 31 31 24 26 28 24 31 33 23 7 -20 -16
28 23 33 32 37 36 17 8 19 -20 -20 -20 -20 -14 23 8 2 9 13 13 18 16 8 20 19 20 23 24 21 22 28 28 30 32 29 14 26 34 9 -20 -20 -20 -20
33 32 28 35 33 33 26 16 28 11 -20 -20 -17 5 7 16 7 13 16 21 17 13 16 17 22 21 27 23 11 10 15 18 16 25 21 23 20 -20 -20 -19 -20 -20 -9
30 31 36 29 20 31 30 30 32 21 9 17 12 22 20 21 20 25 31 28 21 22 5 -19 -10 -2 4 4 3 -10 -3 17 16 8 5 -8 -11 -9 -2 -16 -18 -8 -0
17 28 31 26 21 40 26 32 22 17 -3 -12 16 24 23 29 27 21 20 30 17 8 -9 23 25 -8 7 14 21 19 20 20 26 23 15 14 28 -6 4 -9 -11 7 14
Wind_Speed
13 12 15 16 16 15 16 14 14 10 9 3 10 18 18 16 15 15 19 19 17 17 17 14 15 14 14 14 14 13 16 8 12 10 10 8 8 8 5 5 5 6 6
16 16 16 16 15 17 14 18 14 14 7 6 15 18 15 14 15 15 17 19 20 19 17 18 16 16 14 16 15 16 11 8 4 8 8 4 4 5 5 4 4 5 4
17 17 17 18 17 17 17 15 15 13 9 9 13 7 14 13 14 16 17 18 20 20 19 19 17 17 16 14 15 15 19 12 2 13 6 5 4 4 3 4 3 4 4
18 16 17 19 17 18 17 18 18 17 9 8 9 15 14 16 15 15 16 17 21 21 20 20 18 18 14 19 14 13 14 14 14 2 2 3 7 6 4 2 2 2 3
19 21 20 20 19 17 16 16 19 16 14 4 7 10 15 16 13 16 22 20 19 21 21 20 20 18 14 18 19 16 14 12 11 4 4 3 4 4 5 4 2 2 2
21 20 20 20 20 15 16 15 16 15 12 5 6 12 12 21 18 18 19 18 16 16 20 20 19 17 15 20 17 15 17 13 10 3 5 8 5 4 5 5 3 3 0
22 21 22 20 21 20 18 14 14 14 11 11 9 11 13 23 24 22 19 21 16 15 19 20 18 16 17 17 18 14 15 12 11 7 5 4 3 4 4 9 4 4 1
21 22 21 21 21 21 19 15 15 14 10 5 6 9 8 15 17 21 18 17 17 18 23 21 20 19 19 17 17 13 12 12 8 9 6 4 4 4 5 7 9 4 1
25 25 22 21 20 18 17 17 15 13 11 11 6 5 8 13 22 23 19 17 20 18 23 22 21 20 20 19 17 13 13 12 10 8 6 4 3 4 5 7 9 6 5
26 24 21 19 18 17 15 14 17 15 15 10 1 9 7 11 20 20 21 22 20 21 23 21 21 20 19 18 16 13 12 13 8 5 7 4 3 5 4 7 4 3 5
24 25 21 19 17 17 14 14 15 13 15 9 5 9 9 13 18 19 18 20 19 19 22 24 21 21 19 17 15 13 15 14 11 7 7 7 7 5 5 5 3 4 4
25 22 21 18 15 13 15 15 14 14 14 10 7 9 10 11 17 19 19 20 20 20 19 19 21 21 19 18 16 16 14 15 14 11 8 7 6 7 6 6 5 4 3
25 22 19 17 14 12 11 14 17 14 16 12 6 13 14 13 13 19 20 22 21 19 17 17 20 21 22 20 17 17 16 15 15 13 10 9 10 7 5 6 5 4 3
22 21 17 15 13 13 5 15 15 14 12 12 14 13 15 17 16 16 18 20 20 21 18 18 17 19 20 19 18 16 16 15 13 13 10 11 11 12 11 7 6 5 5
24 21 18 16 15 13 8 12 12 12 13 13 14 14 14 15 17 17 18 17 20 20 20 17 14 13 15 14 19 16 16 15 13 11 10 9 8 13 14 9 7 8 5
27 25 22 19 16 13 9 4 11 13 13 14 14 13 12 14 15 19 18 19 18 17 18 17 17 14 10 20 25 20 14 14 15 12 7 7 10 11 14 11 14 12 10
26 25 21 19 16 13 12 10 14 14 14 13 12 13 15 14 13 16 16 17 19 19 20 20 19 16 10 23 26 25 14 13 12 13 11 9 6 10 8 12 13 10 9
29 24 19 19 16 12 10 10 14 16 15 14 13 13 15 15 13 15 17 18 17 18 17 17 19 17 12 21 25 25 16 12 12 13 13 11 10 8 11 10 8 7 5
24 21 22 19 15 12 10 7 15 15 15 14 14 14 13 13 12 13 13 12 15 15 15 16 18 19 17 26 22 17 14 12 11 10 11 12 11 16 19 11 10 7 5
25 25 26 19 15 15 8 15 15 16 14 13 13 13 14 14 13 12 13 12 12 12 12 13 14 18 18 26 26 20 10 12 9 9 9 14 13 20 21 12 11 10 5
26 26 23 18 21 17 8 13 14 15 13 11 13 12 12 12 12 11 12 11 11 11 12 13 12 15 19 19 23 23 12 11 9 9 7 7 20 19 18 16 10 8 11
31 30 23 16 19 15 11 14 11 14 14 13 13 11 12 9 9 12 10 12 13 12 11 11 9 9 14 20 19 20 20 19 13 10 8 10 20 19 19 12 19 23 17
24 25 25 22 19 20 16 14 10 13 14 14 12 11 12 10 9 11 10 9 10 10 9 9 9 8 8 9 19 19 24 18 11 9 13 22 20 20 14 22 25 19 8
25 26 26 24 24 21 17 14 12 8 14 13 9 10 11 10 7 6 7 9 8 8 8 9 8 8 8 9 8 11 12 19 13 18 15 16 16 13 14 16 11 6 7
20 19 20 20 21 20 20 18 15 7 12 10 9 9 7 9 9 8 5 5 4 7 10 9 11 12 9 9 15 14 11 11 15 16 11 9 9 9 8 7 6 6 7
20 21 23 22 21 19 20 20 16 12 8 10 7 7 7 7 7 8 9 15 13 12 13 10 8 6 13 20 20 19 20 23 28 12 11 9 9 10 9 8 7 5 8
Wind_Direction
330 329 325 318 313 305 308 268 276 267 291 264 289 174 169 166 160 157 155 158 156 158 150 143 144 144 144 135 134 125 120 102 112 105 85 60 47 50 40 47 52 48 42
334 329 324 318 312 305 297 305 289 282 287 303 313 173 158 161 158 155 157 161 158 160 156 150 150 149 140 135 138 139 128 119 125 127 107 93 20 25 25 38 67 61 47
323 324 316 314 309 303 304 300 288 290 270 278 316 156 162 156 163 164 160 164 161 161 158 156 152 151 148 143 148 148 144 147 108 157 129 130 165 138 4 20 48 76 68
323 316 308 304 300 295 296 292 290 280 281 237 297 236 179 168 166 161 160 161 162 160 159 157 154 155 152 148 151 155 154 152 156 110 80 70 138 149 141 16 20 66 97
315 311 306 298 292 287 281 277 275 260 248 229 269 270 187 172 172 163 161 164 165 162 161 159 158 158 158 151 155 160 158 162 161 145 143 87 71 96 130 139 158 41 20
313 305 301 297 290 279 273 276 278 269 259 244 252 293 308 182 170 166 163 166 165 161 161 160 160 158 160 156 160 161 164 164 165 149 152 158 152 161 134 112 112 135 282
310 307 304 296 288 281 271 258 258 261 234 206 213 250 244 198 168 168 165 164 162 161 163 161 163 162 164 164 153 156 164 167 165 159 165 160 138 126 119 119 129 133 172
310 305 299 294 285 281 275 263 247 252 246 227 263 297 268 190 167 168 164 171 161 163 164 165 164 163 161 162 161 161 164 166 160 164 161 160 155 136 149 142 146 105 106
312 307 304 293 283 274 253 247 241 240 245 236 201 271 226 230 168 163 167 168 160 168 165 165 163 162 162 164 165 163 165 167 165 173 155 140 158 139 135 145 157 134 144
312 309 305 295 285 273 255 236 233 219 218 215 118 276 199 243 167 163 163 168 166 169 166 161 163 162 163 164 167 164 161 164 167 154 155 149 142 140 137 149 138 122 132
313 310 304 296 283 268 245 233 233 214 218 188 201 232 201 206 170 162 160 158 159 167 172 161 161 159 162 164 166 167 160 166 163 150 162 170 145 143 136 137 126 124 113
314 310 309 300 290 273 237 215 218 198 197 195 226 218 179 201 167 162 154 156 158 166 168 163 159 158 160 163 167 164 166 166 167 161 157 161 148 139 146 154 147 145 131
319 317 317 313 308 295 210 204 197 183 191 186 220 194 180 169 171 153 154 151 152 155 160 163 164 163 163 167 168 167 164 167 168 164 162 161 149 146 152 151 148 138 117
322 321 318 315 314 315 257 194 176 175 172 181 182 168 169 172 164 159 157 156 153 148 164 171 172 169 166 166 163 165 164 163 164 165 161 162 165 161 159 154 148 134 118
328 328 330 330 329 335 316 182 179 164 167 165 160 166 161 154 155 148 151 151 155 159 159 156 161 168 169 164 162 161 160 159 155 157 157 167 164 162 166 153 153 135 115
332 333 336 330 332 332 321 294 174 155 144 149 162 155 136 158 165 156 157 157 149 151 149 153 153 172 174 173 160 152 152 158 157 157 140 136 135 145 153 140 155 159 147
335 332 336 331 322 317 323 305 161 136 143 139 147 152 142 155 166 158 154 157 157 158 160 161 153 162 160 167 155 146 148 157 160 153 147 140 146 134 126 136 140 149 159
337 333 332 326 319 322 305 276 138 123 129 132 139 143 150 154 153 160 161 162 156 159 162 164 161 154 153 166 151 146 146 152 153 152 154 150 146 148 135 130 118 109 104
330 328 330 323 318 317 292 219 125 125 118 138 140 140 135 137 143 152 151 152 153 156 158 158 163 158 159 152 152 144 141 144 140 138 142 139 142 148 142 131 122 108 78
337 337 338 324 344 329 299 128 131 124 135 135 133 131 130 138 137 137 131 135 137 140 141 148 154 153 154 158 154 140 136 128 122 112 118 138 148 152 149 136 142 118 131
338 343 347 347 354 334 111 112 123 113 110 119 113 117 118 120 123 125 128 126 125 132 135 136 145 151 151 157 145 137 139 132 129 130 129 137 144 151 146 146 142 136 136
347 353 350 341 359 1 53 71 56 102 111 105 96 103 112 108 111 110 111 117 126 124 122 124 127 144 149 150 148 140 132 145 145 140 149 142 150 151 149 132 135 138 125
340 346 355 351 4 18 28 47 5 98 101 97 100 102 92 101 108 113 115 112 116 123 127 132 128 125 129 135 139 136 135 130 119 143 140 146 143 139 134 139 141 137 132
351 344 348 355 7 8 25 34 22 75 91 84 84 91 97 85 76 95 113 113 120 124 130 129 127 126 132 132 129 127 123 121 117 126 132 137 136 128 132 131 124 129 128
346 346 346 357 2 2 19 22 16 31 88 94 85 86 84 99 90 66 59 93 86 146 153 150 147 145 146 157 147 144 144 138 134 125 122 131 128 126 119 105 110 121 128
345 353 351 355 0 6 14 17 15 21 62 89 86 96 107 99 100 102 84 66 82 90 96 102 134 117 133 143 141 138 137 136 139 135 142 144 137 134 133 134 133 138 133